Winfield, KS

3:42 PM CST on December 10, 2019 (GMT -0600)
Strother

Weather History for KWLD - October, 2019

Change the Weather History Date:

Thursday, October 10, 2019

  Actual Average Record
Temperature  
Mean Temperature 56 °F -  
Max Temperature 71 °F 70 °F 82 °F (1999)
Min Temperature 41 °F 48 °F 32 °F (2000)
Degree Days  
Heating Degree Days 9    
Growing Degree Days 6 (Base 50)    
Moisture  
Dew Point 53 °F    
Average Humidity 80    
Maximum Humidity 90    
Minimum Humidity 70    
Precipitation  
Precipitation 0.01 in - - ()
Sea Level Pressure  
Sea Level Pressure 29.83 in    
Wind  
Wind Speed 11 mph ()    
Max Wind Speed 23 mph    
Max Gust Speed 38 mph    
Visibility 9.8 miles    
Events Rain , Thunderstorm    
Averages and records for this station are not official NWS values.
T = Trace of Precipitation, MM = Missing Value Source: Averaged Metar Reports

Daily Weather History Graph

Daily Weather History Graph

Search for Another Location

Airport or City:

Astronomy

Oct. 10, 2019 Rise Set
Actual Time 7:31 AM CDT 6:58 PM CDT
Civil Twilight 7:05 AM CDT 7:24 PM CDT
Nautical Twilight 6:35 AM CDT 7:54 PM CDT
Astronomical Twilight 6:04 AM CDT 8:24 PM CDT
Moon 5:55 PM CDT 4:22 AM CDT
Length of Visible Light 12h 19m
Length of Day
11h 27m
Waxing Gibbous, 91% of the Moon is Illuminated
Oct 10
Waxing Gibbous
Oct 13
Full
Oct 21
Last Quarter
Oct 27
New
Nov 4
First Quarter

Hourly Weather History & Observations

Time (CDT) Temp. Windchill Dew Point Humidity Pressure Visibility Wind Dir Wind Speed Gust Speed Precip Events Conditions
12:54 AM 68.0 °F - 61.0 °F 78% 29.74 in 10.0 mi SSE 13.8 mph - 0.00 in Rain , Thunderstorm Light Thunderstorms and Rain
1:02 AM 68.0 °F - 61.0 °F 78% 29.76 in 10.0 mi South 9.2 mph 20.7 mph 0.00 in Rain Light Rain
1:27 AM 66.9 °F - 62.1 °F 84% 29.76 in 10.0 mi SSE 5.8 mph - 0.00 in Thunderstorm Mostly Cloudy
1:42 AM 68.0 °F - 62.1 °F 81% 29.75 in 10.0 mi ESE 4.6 mph - 0.00 in Rain , Thunderstorm Light Thunderstorms and Rain
1:54 AM 68.0 °F - 62.1 °F 81% 29.73 in 10.0 mi Variable 4.6 mph - 0.01 in Rain , Thunderstorm Light Thunderstorms and Rain
2:33 AM 66.0 °F - 62.1 °F 87% 29.74 in 10.0 mi ENE 6.9 mph - 0.00 in Rain Light Rain
2:54 AM 66.0 °F - 62.1 °F 87% 29.71 in 10.0 mi East 6.9 mph - 0.00 in Rain Light Rain
3:54 AM 66.9 °F - 62.1 °F 84% 29.68 in 10.0 mi SE 11.5 mph - 0.00 in Rain Light Rain
4:54 AM 66.0 °F - 62.1 °F 87% 29.68 in 10.0 mi ESE 8.1 mph - 0.00 in Rain Light Rain
5:54 AM 66.0 °F - 62.1 °F 87% 29.68 in 10.0 mi ESE 8.1 mph - 0.00 in Rain Light Rain
6:36 AM 66.0 °F - 63.0 °F 90% 29.71 in 10.0 mi SE 5.8 mph - 0.00 in Rain Light Rain
6:54 AM 66.9 °F - 64.0 °F 90% 29.68 in 10.0 mi SSE 10.4 mph - 0.00 in Rain Light Rain
7:54 AM 68.0 °F - 64.9 °F 90% 29.70 in 8.0 mi South 12.7 mph - 0.00 in   Mostly Cloudy
8:54 AM 70.0 °F - 66.0 °F 87% 29.71 in 8.0 mi South 12.7 mph 25.3 mph N/A   Overcast
9:54 AM 70.0 °F - 64.9 °F 84% 29.74 in 9.0 mi WSW 17.3 mph 27.6 mph 0.00 in Rain Light Rain
10:17 AM 66.9 °F - 59.0 °F 76% 29.78 in 10.0 mi WSW 12.7 mph 23.0 mph 0.00 in   Overcast
10:54 AM 64.9 °F - 57.9 °F 78% 29.78 in 10.0 mi West 15.0 mph - 0.00 in   Overcast
11:52 AM 59.0 °F - 53.6 °F 82% 29.82 in 10.0 mi WNW 17.3 mph 27.6 mph N/A   Overcast
11:54 AM 59.0 °F - 53.1 °F 81% 29.81 in 10.0 mi West 18.4 mph 27.6 mph N/A   Overcast
12:36 PM 55.9 °F - 50.0 °F 80% 29.85 in 10.0 mi WNW 17.3 mph - N/A   Overcast
12:54 PM 55.9 °F - 50.0 °F 80% 29.84 in 10.0 mi WNW 17.3 mph - N/A   Overcast
1:54 PM 55.0 °F - 48.0 °F 77% 29.85 in 10.0 mi WNW 17.3 mph 28.8 mph N/A   Overcast
2:54 PM 52.0 °F - 44.1 °F 74% 29.87 in 10.0 mi NW 21.9 mph 29.9 mph N/A   Overcast
3:54 PM 50.0 °F - 43.0 °F 77% 29.91 in 10.0 mi NW 19.6 mph 28.8 mph N/A   Overcast
4:54 PM 48.9 °F - 41.0 °F 74% 29.93 in 10.0 mi NW 19.6 mph - N/A   Overcast
5:54 PM 46.9 °F - 39.0 °F 74% 29.96 in 10.0 mi NNW 19.6 mph 29.9 mph N/A   Overcast
6:54 PM 45.0 °F 37.4 °F 37.9 °F 76% 29.99 in 10.0 mi NNW 18.4 mph - N/A   Overcast
7:54 PM 44.1 °F 35.9 °F 36.0 °F 73% 30.03 in 10.0 mi NNW 19.6 mph 31.1 mph N/A   Overcast
8:54 PM 43.0 °F 34.5 °F 35.1 °F 74% 30.06 in 10.0 mi NNW 19.6 mph 29.9 mph N/A   Overcast
9:54 PM 42.1 °F 32.6 °F 33.1 °F 70% 30.08 in 10.0 mi North 23.0 mph 38.0 mph N/A   Overcast
10:54 PM 42.1 °F 33.3 °F 33.1 °F 70% 30.13 in 10.0 mi NNW 19.6 mph 29.9 mph N/A   Overcast
11:54 PM 41.0 °F 32.5 °F 32.0 °F 70% 30.16 in 10.0 mi NNW 17.3 mph 27.6 mph N/A   Overcast